Flag for Germany Weather past 2 weeks in Neuwied, Rhineland-Palatinate, Germany

Now
59 °F

Partly sunny.


Feels Like: 56 °F
Forecast: 46 / 66 °F
Wind: 14 mph from West

Location: Buechel

Current Time: May 28, 2015 at 4:19:44 PM

Latest Report: May 28, 2015 at 3:20 PM


Visibility: N/A

Pressure: 29.98 "Hg

Humidity: 55%

Dew point: 43 °F

Location of NeuwiedLocation

Historic Weather in Neuwied — Graph

°F

Neuwied temperature yesterday

Maximum temperature yesterday: 55 °F (at 4:20 PM)
Minimum temperature yesterday: 41 °F (at 1:20 AM)
Average temperature yesterday: 48 °F

Past Weeks' High & Low Weather Summary

 TemperatureHumidityPressure
High64 °F (May 18, 4:20 PM)100% (May 15, 7:20 AM)30.33 "Hg (May 15, 7:20 AM)
Low37 °F (May 21, 5:20 AM)32% (May 13, 2:20 PM)29.71 "Hg (May 18, 7:20 PM)
Average52 °F67%30.07 "Hg
* Reported May 13 2:20 PM — May 28 2:20 PM, Neuwied, Weather by CustomWeather, © 2015

Note: Actual official high and low records may vary slightly from our data, if they occured in-between our weather recording intervals... More about our weather records

Advertising

Neuwied weather history for previous 24 hours

 ConditionsComfort  
Time TempWeatherWind HumidityBarometerVisibility
2:20 PM
Thu, May 28
59 °FPartly sunny.12 mph55%29.98 "HgN/A
1:20 PM61 °FPartly sunny.15 mph55%29.98 "HgN/A
12:20 PM61 °FScattered clouds.14 mph55%29.98 "HgN/A
11:20 AM57 °FScattered clouds.13 mph63%30.01 "HgN/A
10:20 AM55 °FBroken clouds.13 mph63%30.01 "HgN/A
9:20 AM52 °FBroken clouds.12 mph67%30.04 "HgN/A
8:20 AM48 °FPartly sunny.10 mph71%30.04 "HgN/A
7:20 AM46 °FPartly sunny.9 mph76%30.04 "HgN/A
6:20 AM46 °FPassing clouds.9 mph71%30.04 "HgN/A
5:20 AM46 °FPartly cloudy.9 mph71%30.04 "HgN/A
4:20 AM46 °FPassing clouds.8 mph71%30.07 "HgN/A
3:20 AM46 °FCool.7 mph71%30.07 "Hg5 mi
2:20 AM45 °FQuite cool.6 mph76%30.09 "Hg5 mi
1:20 AM45 °FQuite cool.5 mph76%30.09 "Hg5 mi
12:20 AM46 °FCool.7 mph71%30.12 "Hg5 mi
11:20 PM
Wed, May 27
46 °FCool.7 mph71%30.12 "Hg4 mi
10:20 PM48 °FCool.6 mph66%30.15 "Hg4 mi
9:20 PM50 °FScattered clouds.5 mph62%30.15 "HgN/A
8:20 PM54 °FScattered clouds.6 mph54%30.15 "HgN/A
7:20 PM55 °FScattered clouds.6 mph51%30.18 "HgN/A
6:20 PM54 °FBroken clouds.7 mph54%30.18 "HgN/A
5:20 PM55 °FBroken clouds.6 mph55%30.21 "HgN/A
4:20 PM55 °FBroken clouds.7 mph47%30.21 "HgN/A
Weather by CustomWeather, © 2015

See weather overviewHow to use our weather pages